COSMOS 249 DEB

Satellite information

Favourite Embed

Satellite Type and Status

DEBRISIN ORBIT

Key statistics

Satellite COSMOS 249 DEB at a glance.

Uptime

20873

Days in orbit

Revolutions

≈ 13.2

Per day

Orbit

LEO

Low Earth Orbit

Inclination

62.3

Latest

Satellite identification and parameters

Extended collection of information and parameters for COSMOS 249 DEB.

Object identification

Identified? True

Debris? True

Object name: COSMOS 249 DEB

International designator: 1968-091BH

Object number (NORAD): 3874

Object ID (CCSDS): 3874

Country: COMMONWEALTH OF INDEPENDENT STATES (CIS)

Current information (Y/N): Y

RCS size: SMALL

Orbital parameters

Period: 109.093 minutes

Inclination: 62.2501 deg

SMA: 7562.969 km

Apoapsis: 1662.489 km

Periapsis: 707.179 km

RAAN: 98.2396 deg

Eccentricy: 0.06315709

Argument of periapsis: 148.9712 deg

Mean anomaly: 215.0257 deg

Mean motion: 13.19970583 rev/day

Mean motion (dot): 0.00005689 rev/day2

B* drag term: 0.0050095226 1/REarth

Two-line elements (TLE)

Creation date: Dec. 12, 2025, 10:14 a.m.

Reference frame: TEME

Reference center: EARTH

Epoch: Dec. 12, 2025, 7:25 a.m. UTC

TLE line 0: 0 COSMOS 249 DEB

TLE line 1: 1 03874U 68091BH 25346.30916462 .00005689 00000-0 50095-2 0 9996

TLE line 2: 2 03874 62.2501 98.2396 0631571 148.9712 215.0257 13.19970583675996

Live tracking on map

Real-time ground track for satellite COSMOS 249 DEB.

In-orbit conjunctions

A list of the most updated potential collisions computed for object COSMOS 249 DEB.

Target Orbit TCA Probability of collision Miss distance Type
FENGYUN 1C DEB SSO 2025-06-06 22:02:06 0.0001442209 229.0 (m) DEBRIS
TIROS 9 MEO 2025-03-15 03:39:13 0.0001237339 949.0 (m) PAYLOAD
ASTEX 1 SSO 2024-08-06 21:51:56 0.0001061176 48.0 (m) PAYLOAD

Associated space launch

The I2P satellites were the first soviet coorbital ASAT system.

COSMOS 249 DEB was lifted into orbit during the mission ‘Tsiklon-2A | I2P 1’, on board a Tsiklon-2A space rocket.

The launch took place on Oct. 20, 1968, 4:02 a.m. from 90/20.

For more information about the launch, click the button.

Launch to space Tsiklon-2A | I2P 1
Tsiklon-2A | I2P 1

Agency: N/A

Status: Launch Successful

Launch date: Oct. 20, 1968, 4:02 a.m. UTC

Rocket: Tsiklon-2A

Launch pad: 90/20

Location: Baikonur Cosmodrome, Republic of Kazakhstan

...

Latest news about this satellite

There are no fresh news available about this satellite. Check back as we update our databases every day.


Newsletter sign-up

Weekly statistics, charts and insights to help you stay on top of the space industry.